Погода в Сарасоте

США     27°20′10″N   82°31′52″W
темп.,
°C
ветер,
м/с
пор.,
м/с
влажн.,
%
обл.,
%
осадки,
мм/ч
давл.,
гПа
погр.,
м
19 апреля, пн
пн1923:00+25ююз4782100 0.9 1013169
02:00+24ююз4785100 1.9 1013185
05:00+24юз610805 1.7 1012253
08:00+24зюз611815 2.5 1013469
11:00+24зсз578397 2.7 1014530
14:00+24з348092 3.2 1013390
17:00+24зсз44809 0.1 1012451
20:00+24сз557878 0.3 1013330
20 апреля, вт
вт2023:00+23ссз228099 0.4 1014212
02:00+22всв2384100 1.1 1014199
05:00+21в3493100 0.1 1013240
08:00+21юв339277 0.1 1014263
11:00+23ю3487100 3.4 1015381
14:00+23юз6989100 11.5 1014432
17:00+23з5791100 5.3 1013367
20:00+23сз2391100 17.4 1014196
21 апреля, ср
ср2123:00+22зсз348990 1.9 1015246
02:00+22з469127 2.3 1015316
05:00+21зсз568876 0.9 1015443
08:00+22сз458061 1.3 1017549
11:00+23ссз456398 0.0 1018712
14:00+24зсз65540 0.0 1017727
17:00+24сз66540 0.0 1016640
20:00+23ссз68565 0.0 1017523
22 апреля, чт
чт2223:00+22ссз46550 0.0 1019392
02:00+21ссз58660 0.0 1018526
05:00+19св69770 0.0 1018414
08:00+18ссв69700 0.0 1019333
11:00+22св565412 0.0 1020726
14:00+26ссв23450 0.0 1019697
17:00+27ссз44430 0.0 1017840
20:00+25с68485 0.0 1018243
23 апреля, пт
пт2323:00+22в69612 0.0 1020471
02:00+19всв610705 0.0 1020388
05:00+18всв5107748 0.0 1019326
08:00+19в59796 0.0 1020304
11:00+25вюв56624 0.0 1020989
14:00+27юз44572 0.0 10181180
17:00+25з546516 0.0 1016389
20:00+25зюз116794 0.0 1018141